{"data":{"norad_id":68796,"epoch":"2026-09-19T16:04:35.380416Z","epoch_age_seconds":131284,"freshness":"FRESH","line1":"1 68796U 26088E   26262.66985394  .00002789  00000+0  17951-3 0  9999","line2":"2 68796  97.5195  50.0220 0016871 112.8379 247.4634 15.09071214 22540","mean_motion":15.09071214,"eccentricity":0.0016871,"inclination_deg":97.5195,"raan_deg":50.022,"arg_perigee_deg":112.8379,"mean_anomaly_deg":247.4634,"bstar":0.00017951,"rev_number":2254,"period_min":95.422932108226,"perigee_km":527.36678666692,"apogee_km":550.70671433587,"semimajor_km":6917.1737505014,"source":"CELESTRAK","updated_at":"2026-09-20T09:00:24.463486Z"}}